Location: Borgo
(42.3939°N, 9.2791°E)
Time: 12:13:43
(UTC+00:00)

ISS - Pass Details

Date: 28 April 2021
Orbit: 417 x 422 km, 51.6° (Epoch: 15 May)

Event Time Altitude Azimuth Distance (km) Brightness Sun altitude
Exits shadow 03:48:15 - 252° (WSW) 1,616 -1.5 -6.6°
Reaches altitude 10° 03:48:32 10° 253° (WSW) 1,499 -1.6 -6.5°
Maximum altitude 03:51:50 51° 331° (NNW) 534 -3.2 -6.0°
Drops below altitude 10° 03:55:09 10° 49° (NE) 1,508 0.6 -5.4°
Sets 03:57:18 0° 54° (NE) 2,376 2.2 -5.1°
